Total_Precipitation_Accumulation
0.45 0.45 0.45 0.43 0.40 0.35 0.30 0.29 0.30 0.33 0.36 0.40 0.46 0.50 0.53 0.56 0.60 0.68 0.82 1.01 1.11 1.14 1.17 1.23 1.24 1.23 1.22 1.22 1.29 1.40 1.52 1.50 1.27 1.07 1.09 1.10 1.04 0.90 0.79 0.68 0.53 0.41 0.30
0.61 0.69 0.70 0.62 0.53 0.44 0.35 0.30 0.29 0.32 0.35 0.36 0.37 0.39 0.41 0.45 0.52 0.62 0.74 0.85 0.94 0.97 0.97 0.96 0.94 0.92 0.94 0.95 1.02 1.12 1.21 1.38 1.35 1.22 1.28 1.32 1.28 1.17 1.07 0.93 0.70 0.49 0.37
0.67 0.91 1.02 0.94 0.80 0.61 0.43 0.29 0.24 0.24 0.27 0.28 0.30 0.35 0.42 0.53 0.62 0.67 0.71 0.74 0.76 0.80 0.86 0.91 0.84 0.80 0.80 0.82 0.84 0.85 0.90 1.09 1.20 1.23 1.28 1.37 1.37 1.33 1.18 1.02 0.90 0.69 0.48
0.62 0.78 0.85 0.78 0.68 0.55 0.37 0.24 0.19 0.19 0.21 0.25 0.31 0.37 0.45 0.53 0.61 0.66 0.67 0.66 0.62 0.58 0.62 0.67 0.70 0.67 0.66 0.70 0.74 0.74 0.77 0.91 1.06 1.16 1.26 1.42 1.43 1.35 1.26 1.10 1.04 0.90 0.74
0.40 0.46 0.51 0.45 0.35 0.30 0.25 0.20 0.18 0.20 0.21 0.26 0.32 0.38 0.42 0.44 0.45 0.42 0.42 0.41 0.40 0.37 0.36 0.39 0.45 0.51 0.53 0.55 0.58 0.69 0.75 0.81 0.89 0.97 1.05 1.25 1.47 1.48 1.27 1.12 1.15 1.10 0.96
0.24 0.28 0.34 0.36 0.29 0.23 0.19 0.16 0.15 0.18 0.22 0.27 0.32 0.37 0.38 0.33 0.37 0.28 0.20 0.20 0.25 0.29 0.32 0.34 0.35 0.38 0.42 0.43 0.44 0.52 0.65 0.73 0.77 0.83 0.90 1.06 1.27 1.41 1.43 1.35 1.24 1.11 1.03
0.22 0.27 0.35 0.37 0.33 0.29 0.21 0.19 0.19 0.21 0.23 0.26 0.27 0.27 0.29 0.33 0.31 0.24 0.15 0.15 0.19 0.22 0.26 0.29 0.27 0.27 0.31 0.33 0.34 0.35 0.38 0.47 0.58 0.71 0.79 0.84 0.97 1.14 1.28 1.26 1.28 1.27 1.22
0.21 0.26 0.31 0.36 0.34 0.31 0.31 0.32 0.33 0.31 0.29 0.28 0.27 0.26 0.31 0.32 0.27 0.22 0.17 0.15 0.21 0.23 0.25 0.27 0.26 0.23 0.23 0.27 0.32 0.31 0.29 0.29 0.33 0.43 0.56 0.73 0.89 1.05 1.24 1.22 1.18 1.25 1.31
0.20 0.28 0.32 0.37 0.38 0.37 0.38 0.40 0.41 0.40 0.36 0.33 0.31 0.33 0.36 0.37 0.30 0.22 0.18 0.20 0.27 0.28 0.29 0.26 0.25 0.23 0.21 0.19 0.26 0.32 0.34 0.32 0.30 0.33 0.40 0.60 0.83 0.95 1.13 1.19 1.09 1.02 0.97
0.23 0.30 0.36 0.41 0.45 0.45 0.47 0.47 0.46 0.49 0.43 0.37 0.34 0.36 0.40 0.46 0.42 0.28 0.23 0.25 0.33 0.35 0.40 0.34 0.26 0.22 0.22 0.20 0.23 0.28 0.30 0.31 0.32 0.32 0.34 0.42 0.57 0.76 0.89 1.00 1.00 0.90 0.75
0.22 0.28 0.38 0.44 0.50 0.53 0.58 0.60 0.59 0.58 0.56 0.52 0.45 0.43 0.47 0.50 0.51 0.35 0.26 0.31 0.41 0.49 0.52 0.43 0.35 0.26 0.22 0.23 0.24 0.29 0.28 0.29 0.36 0.40 0.40 0.44 0.52 0.65 0.75 0.83 0.93 0.91 0.79
0.26 0.34 0.41 0.46 0.44 0.47 0.63 0.68 0.71 0.73 0.69 0.65 0.60 0.53 0.54 0.57 0.53 0.43 0.31 0.29 0.41 0.59 0.68 0.61 0.51 0.40 0.31 0.28 0.26 0.27 0.25 0.25 0.32 0.40 0.44 0.46 0.49 0.53 0.62 0.75 0.85 0.87 0.83
0.33 0.40 0.45 0.47 0.51 0.60 0.69 0.73 0.77 0.82 0.80 0.74 0.72 0.68 0.65 0.68 0.62 0.44 0.35 0.32 0.37 0.55 0.72 0.74 0.62 0.48 0.41 0.36 0.31 0.30 0.29 0.28 0.33 0.38 0.40 0.41 0.43 0.46 0.55 0.69 0.85 0.88 0.84
0.42 0.43 0.46 0.51 0.53 0.58 0.69 0.75 0.80 0.85 0.89 0.86 0.82 0.80 0.80 0.79 0.73 0.60 0.47 0.40 0.42 0.52 0.65 0.72 0.65 0.59 0.52 0.50 0.41 0.34 0.32 0.35 0.37 0.39 0.41 0.44 0.50 0.54 0.57 0.61 0.70 0.78 0.83
0.51 0.49 0.49 0.52 0.59 0.66 0.71 0.76 0.75 0.81 0.79 0.81 0.82 0.85 0.88 0.87 0.71 0.62 0.61 0.55 0.60 0.67 0.74 0.88 0.81 0.74 0.66 0.59 0.51 0.45 0.42 0.43 0.41 0.43 0.49 0.52 0.55 0.61 0.62 0.60 0.64 0.65 0.64
0.64 0.64 0.60 0.56 0.62 0.68 0.73 0.70 0.61 0.56 0.54 0.53 0.56 0.60 0.64 0.59 0.52 0.46 0.47 0.48 0.54 0.64 0.72 0.90 0.90 0.83 0.78 0.70 0.60 0.53 0.51 0.48 0.45 0.48 0.51 0.53 0.55 0.59 0.63 0.58 0.56 0.56 0.54
0.71 0.70 0.66 0.63 0.65 0.68 0.71 0.74 0.77 0.70 0.59 0.53 0.48 0.46 0.48 0.46 0.43 0.41 0.42 0.46 0.47 0.54 0.64 0.82 0.87 0.82 0.81 0.77 0.66 0.56 0.53 0.52 0.54 0.54 0.55 0.54 0.56 0.57 0.62 0.61 0.53 0.53 0.52
0.68 0.69 0.69 0.68 0.67 0.69 0.71 0.72 0.78 0.88 0.87 0.74 0.55 0.45 0.43 0.42 0.37 0.36 0.39 0.42 0.43 0.46 0.61 0.75 0.80 0.76 0.73 0.69 0.64 0.57 0.54 0.57 0.62 0.61 0.60 0.58 0.55 0.54 0.58 0.60 0.54 0.46 0.46
0.66 0.65 0.63 0.64 0.65 0.67 0.66 0.67 0.73 0.83 0.91 0.86 0.72 0.57 0.47 0.44 0.39 0.37 0.37 0.38 0.42 0.48 0.60 0.67 0.71 0.70 0.63 0.60 0.59 0.55 0.53 0.54 0.60 0.63 0.61 0.59 0.57 0.54 0.54 0.53 0.53 0.50 0.43
0.67 0.62 0.63 0.64 0.63 0.62 0.62 0.65 0.71 0.79 0.86 0.82 0.76 0.65 0.53 0.51 0.44 0.37 0.33 0.33 0.42 0.50 0.59 0.64 0.66 0.63 0.55 0.55 0.55 0.53 0.51 0.55 0.61 0.61 0.60 0.59 0.57 0.53 0.50 0.49 0.48 0.47 0.39
0.70 0.62 0.57 0.59 0.58 0.58 0.61 0.65 0.68 0.71 0.77 0.72 0.65 0.53 0.46 0.44 0.39 0.33 0.29 0.32 0.41 0.50 0.55 0.59 0.59 0.56 0.52 0.51 0.53 0.53 0.50 0.53 0.56 0.56 0.56 0.56 0.57 0.56 0.51 0.48 0.46 0.42 0.39
0.73 0.63 0.55 0.52 0.54 0.54 0.55 0.62 0.68 0.68 0.65 0.62 0.57 0.44 0.42 0.41 0.34 0.29 0.28 0.32 0.37 0.47 0.47 0.46 0.49 0.49 0.45 0.45 0.48 0.50 0.52 0.53 0.55 0.52 0.50 0.53 0.56 0.55 0.52 0.50 0.50 0.45 0.42
0.75 0.62 0.53 0.47 0.48 0.47 0.49 0.57 0.64 0.62 0.57 0.53 0.48 0.44 0.42 0.42 0.30 0.25 0.29 0.36 0.41 0.43 0.39 0.37 0.41 0.44 0.42 0.40 0.39 0.43 0.47 0.50 0.51 0.47 0.48 0.51 0.53 0.52 0.51 0.47 0.46 0.44 0.41
0.76 0.66 0.56 0.46 0.45 0.48 0.50 0.54 0.56 0.54 0.49 0.44 0.40 0.38 0.38 0.38 0.32 0.29 0.32 0.39 0.40 0.36 0.33 0.33 0.36 0.38 0.39 0.40 0.38 0.38 0.39 0.43 0.45 0.45 0.44 0.45 0.48 0.50 0.50 0.45 0.43 0.41 0.40
0.75 0.66 0.55 0.44 0.40 0.43 0.47 0.50 0.51 0.49 0.43 0.36 0.32 0.31 0.32 0.34 0.32 0.32 0.35 0.36 0.34 0.32 0.28 0.30 0.34 0.36 0.37 0.37 0.34 0.33 0.34 0.36 0.39 0.43 0.44 0.43 0.44 0.47 0.47 0.44 0.43 0.43 0.41
0.69 0.61 0.53 0.44 0.37 0.36 0.41 0.45 0.44 0.42 0.37 0.33 0.29 0.28 0.28 0.29 0.28 0.26 0.26 0.27 0.27 0.27 0.28 0.30 0.34 0.36 0.37 0.34 0.29 0.29 0.29 0.28 0.32 0.39 0.41 0.43 0.44 0.46 0.46 0.46 0.43 0.42 0.40